Retour au catalogue

TIANQI 30

ActifCommunicationsLEO
NORAD 61196·PAYLOAD·🇨🇳 China

Lancé Sep 20, 2024 depuis Xichang Satellite Launch Center

Loading…

Prochains Passages (prochaines 24 heures)

TLE

FraisSource: Space-Track

Époque: Sep 14, 2026, 14:53 UTC

1 61196U 24170B   26257.62030985  .00000022  00000-0  10473-3 0  9994
2 61196  44.8577  99.0759 0008495 160.5046 199.6110 13.97722096101563

Suivez TIANQI 30 en temps réel avec AllMySat

Download on the App Store